sat.trackr.live / text

‹ back to catalog

STARLINK-34013

NORAD 63871 · 2025-094H

PAYLOAD ACTIVE UNKNOWN

§ Identity

Operator
Country
US
Launch date
2025-05-10
Launch site
AFWTR
Launch vehicle
Mass (kg)
RCS (m²)

Purposes: comms

External: N2YO · Heavens-Above · Gunter

§ Orbital elements

Epoch: 2026-09-20T22:45:33.264288Z

Period
94.14 min
Inclination
69.9992°
Eccentricity
0.0003441
Mean motion
15.29584848 rev/d
Perigee alt
474.7 km
Apogee alt
479.4 km
Semi-major
6,855.2 km
B*
2.9479e-4
RAAN
99.6524°
Arg perigee
270.6487°
Mean anomaly
89.4293°
Rev number
7,651

§ Raw data

STARLINK-340131 63871U 25094H   26263.94830167  .00008357  00000+0  29479-3 0  99982 63871  69.9992  99.6524 0003441 270.6487  89.4293 15.29584848 76510

JSON: /api/v1/satellites/63871 · /tle

For live sub-satellite position, see the globe view (requires WebGL).

§ Visibility from observer

Set your observer location to see the next 7 days of passes ≥ 10°. The values pass through the URL so the page stays shareable.

No JS? Fill the form by hand. The geolocation button needs JavaScript.